{"data":{"norad_id":68308,"epoch":"2026-05-24T22:08:18.748608Z","epoch_age_seconds":78778,"freshness":"FRESH","line1":"1 68308U 26057Q   26144.92243922  .00150149  00000+0  98794-3 0  9994","line2":"2 68308  97.2847 271.1237 0001702  57.2470 302.8959 15.75236449 10285","mean_motion":15.75236449,"eccentricity":0.0001702,"inclination_deg":97.2847,"raan_deg":271.1237,"arg_perigee_deg":57.247,"mean_anomaly_deg":302.8959,"bstar":0.00098794,"rev_number":1028,"period_min":91.41484765123,"perigee_km":342.81432183775,"apogee_km":345.10252311956,"semimajor_km":6722.0954224787,"source":"CELESTRAK","updated_at":"2026-05-25T13:38:21.918537Z"}}